Location: Heiligenberg
(48.5381°N, 7.3897°E)
Time: 22:46:29
(UTC+00:00)

MOS 1 Rocket - Pass Details

Date: 26 May 2022
Orbit: 615 x 827 km, 97.5° (Epoch: 02 July)

Event Time Altitude Azimuth Distance (km) Brightness Sun altitude
Exits shadow 02:23:25 13° 211° (SSW) 1,768 4.8 -10.1°
Maximum altitude 02:26:30 28° 266° (W) 1,159 4.1 -9.7°
Drops below altitude 10° 02:30:15 10° 326° (NW) 2,000 5.9 -9.3°
Sets 02:32:43 0° 338° (NNW) 2,928 6.9 -9.0°
